Location: Kellogg
(38.0159°N, 90.0546°W)
Time: 12:32:47
(UTC+00:00)

Courier 1B - Pass Details

Date: 15 September 2024
Orbit: 962 x 1208 km, 28.3° (Epoch: 11 October)

Event Time Altitude Azimuth Distance (km) Brightness Sun altitude
Rises 20:16:17 0° 239° (WSW) 3,857 11.4 42.1°
Reaches altitude 10° 20:19:12 10° 230° (SW) 2,941 11.2 41.6°
Maximum altitude 20:25:39 35° 168° (SSE) 1,763 9.5 40.6°
Drops below altitude 10° 20:32:24 10° 106° (ESE) 3,092 9.9 39.5°
Sets 20:35:33 0° 98° (E) 4,079 10.4 39.0°
